Location: *
(1.3500°S, 147.5000°W)
Time: 05:17:28
(UTC+00:00)

Envisat - Visible Passes

Search period start: 22 June 2021 00:00
Search period end: 02 July 2021 00:00
Orbit: 764 x 766 km, 98.1° (Epoch: 21 June)

Date Brightness Start Highest point End Pass type
(mag) Time Alt. Az. Time Alt. Az. Time Alt. Az.
22 Jun 3.0 14:46:55 10° NNE 14:51:59 83° E 14:57:05 10° S visible
23 Jun 4.8 14:10:57 10° NE 14:15:16 29° ESE 14:19:37 10° SSE visible
24 Jun 3.3 15:12:27 10° N 15:17:17 46° WNW 15:22:08 10° SSW visible
25 Jun 3.5 14:35:34 10° NNE 14:40:33 60° ESE 14:45:34 10° S visible
26 Jun 5.2 14:00:04 10° NE 14:03:50 21° ESE 14:07:37 10° SSE visible
27 Jun 3.0 15:00:50 10° N 15:05:50 64° WNW 15:10:53 10° SSW visible
28 Jun 4.1 14:24:18 10° NNE 14:29:07 43° ESE 14:33:55 10° S visible
29 Jun 5.6 13:49:29 10° ENE 13:52:25 15° ESE 13:55:20 10° SE visible
29 Jun 3.9 15:26:43 10° NNW 15:31:08 30° WNW 15:35:34 10° SW visible
30 Jun 3.0 14:49:20 10° NNE 14:54:24 88° W 14:59:29 10° SSW visible
01 Jul 4.6 14:13:12 10° NE 14:17:40 32° ESE 14:22:09 10° SSE visible
